GW3577 Weather Reports


Display with metric or nautical units.
time (UTC)temp
F
wind
direction
speed
MPH
gust
MPH
rain 1hr
in
rain 24hr
in
rain mn
in
humidity
%
barometer
mb
20260904151833 99 338 1.0 4.0 0.00 0.00 0.00 45 1015.4
20260904151332 98 4 4.0 7.0 0.00 0.00 0.00 45 1015.4
20260904150829 97 9 6.0 10.0 0.00 0.00 0.00 45 1015.4
20260904150329 97 295 4.0 8.0 0.00 0.00 0.00 48 1015.4
20260904145826 98 300 3.0 11.0 0.00 0.00 0.00 46 1015.4
20260904145323 97 30 1.0 4.0 0.00 0.00 0.00 46 1015.8
20260904144819 97 338 2.0 6.0 0.00 0.00 0.00 46 1015.8
20260904144314 97 327 0.0 0.0 0.00 0.00 0.00 50 1015.8
20260904143809 95 327 0.0 0.0 0.00 0.00 0.00 52 1015.8
20260904143306 93 147 2.0 3.0 0.00 0.00 0.00 55 1015.8
20260904142802 92 147 3.0 5.0 0.00 0.00 0.00 55 1015.8
20260904142257 93 137 2.0 4.0 0.00 0.00 0.00 55 1015.8
20260904141752 93 123 0.0 0.0 0.00 0.00 0.00 57 1015.8
20260904141248 92 123 0.0 3.0 0.00 0.00 0.00 58 1015.8
20260904140743 91 123 0.0 0.0 0.00 0.00 0.00 59 1016.1
20260904140238 91 123 0.0 0.0 0.00 0.00 0.00 59 1016.1
20260904135736 90 123 0.0 0.0 0.00 0.00 0.00 61 1015.8
20260904135232 89 123 0.0 0.0 0.00 0.00 0.00 62 1016.1
20260904134728 89 123 3.0 6.0 0.00 0.00 0.00 64 1016.1
20260904134228 88 123 3.0 5.0 0.00 0.00 0.00 65 1016.1
20260904133722 87 123 1.0 2.0 0.00 0.00 0.00 67 1016.1
20260904133220 86 123 0.0 2.0 0.00 0.00 0.00 67 1016.5
20260904132718 87 123 0.0 0.0 0.00 0.00 0.00 68 1016.5
20260904132214 86 236 0.0 1.0 0.00 0.00 0.00 70 1016.5
20260904131712 85 236 3.0 5.0 0.00 0.00 0.00 72 1016.5
20260904131208 85 238 0.0 2.0 0.00 0.00 0.00 71 1016.5
20260904130703 85 238 0.0 0.0 0.00 0.00 0.00 71 1016.5
20260904130202 84 238 0.0 0.0 0.00 0.00 0.00 73 1016.5
20260904125659 83 238 0.0 0.0 0.00 0.00 0.00 74 1016.5
20260904125154 83 238 0.0 0.0 0.00 0.00 0.00 76 1016.5
20260904124649 82 238 0.0 0.0 0.00 0.00 0.00 78 1016.5
20260904124144 81 238 0.0 0.0 0.00 0.00 0.00 79 1016.5
20260904123638 80 238 0.0 0.0 0.00 0.00 0.00 80 1016.5
20260904123134 79 238 0.0 0.0 0.00 0.00 0.00 82 1016.5
20260904122629 78 238 0.0 0.0 0.00 0.00 0.00 84 1016.8
20260904122124 77 238 0.0 2.0 0.00 0.00 0.00 85 1016.8
20260904121619 77 238 0.0 0.0 0.00 0.00 0.00 88 1016.8
20260904121115 76 238 0.0 0.0 0.00 0.00 0.00 88 1016.8
20260904120611 76 238 0.0 0.0 0.00 0.00 0.00 89 1016.5
20260904120107 75 238 0.0 0.0 0.00 0.00 0.00 91 1016.8
20260904115602 75 238 0.0 0.0 0.00 0.00 0.00 91 1016.8
20260904115056 74 238 0.0 0.0 0.00 0.00 0.00 92 1016.8
20260904114551 74 238 0.0 0.0 0.00 0.00 0.00 92 1016.8
20260904114050 73 238 0.0 0.0 0.00 0.00 0.00 93 1016.8
20260904113544 73 238 0.0 0.0 0.00 0.00 0.00 94 1016.8
20260904113039 73 238 0.0 0.0 0.00 0.00 0.00 93 1016.8
20260904112534 72 7 0.0 0.0 0.00 0.00 0.00 94 1016.8
20260904112030 71 330 0.0 2.0 0.00 0.00 0.00 96 1016.8
20260904111525 71 302 1.0 3.0 0.00 0.00 0.00 97 1016.5
20260904111020 71 302 0.0 0.0 0.00 0.00 0.00 96 1016.5
20260904110515 71 302 0.0 0.0 0.00 0.00 0.00 96 1016.5
20260904110011 71 302 0.0 0.0 0.00 0.00 0.00 96 1016.5
20260904105510 71 302 0.0 1.0 0.00 0.00 0.00 96 1016.5
20260904105005 71 302 0.0 0.0 0.00 0.00 0.00 96 1016.5
20260904104500 71 302 0.0 0.0 0.00 0.00 0.00 96 1016.5
20260904103956 70 301 0.0 0.0 0.00 0.00 0.00 96 1016.5
20260904103451 70 336 0.0 0.0 0.00 0.00 0.00 96 1016.8
20260904102948 70 336 0.0 0.0 0.00 0.00 0.00 96 1016.5
20260904102443 71 336 0.0 0.0 0.00 0.00 0.00 95 1016.5
20260904101938 71 336 0.0 0.0 0.00 0.00 0.00 95 1016.5
20260904101435 71 297 0.0 0.0 0.00 0.00 0.00 95 1016.5
20260904100925 71 279 0.0 0.0 0.00 0.00 0.00 95 1016.5
20260904100420 71 279 0.0 0.0 0.00 0.00 0.00 96 1016.5
20260904095915 70 279 0.0 0.0 0.00 0.00 0.00 96 1016.5
20260904095410 70 252 0.0 4.0 0.00 0.00 0.00 96 1016.5
20260904094904 70 132 0.0 0.0 0.00 0.00 0.00 96 1016.5
20260904094400 71 132 0.0 0.0 0.00 0.00 0.00 96 1016.5
20260904093856 70 132 0.0 0.0 0.00 0.00 0.00 96 1016.5
20260904093355 71 132 2.0 3.0 0.00 0.00 0.00 96 1016.5
20260904092851 71 132 2.0 3.0 0.00 0.00 0.00 96 1016.5
20260904092348 70 330 0.0 0.0 0.00 0.00 0.00 96 1016.5
20260904091844 71 330 0.0 0.0 0.00 0.00 0.00 96 1016.5
20260904091339 71 330 0.0 0.0 0.00 0.00 0.00 95 1016.5
20260904090833 71 330 0.0 0.0 0.00 0.00 0.00 94 1016.5
20260904090330 72 330 0.0 0.0 0.00 0.00 0.00 94 1016.5
20260904085824 72 330 0.0 0.0 0.00 0.00 0.00 94 1016.5
20260904085320 72 330 0.0 0.0 0.00 0.00 0.00 94 1016.5
20260904084814 72 330 0.0 0.0 0.00 0.00 0.00 95 1016.5
20260904084310 71 330 0.0 0.0 0.00 0.00 0.00 94 1016.5
20260904083806 72 330 0.0 0.0 0.00 0.00 0.00 94 1016.5
20260904083303 71 330 0.0 0.0 0.00 0.00 0.00 95 1016.5
20260904082802 71 330 0.0 0.0 0.00 0.00 0.00 95 1016.1
20260904082257 72 330 0.0 0.0 0.00 0.00 0.00 94 1016.1
20260904081752 72 330 0.0 0.0 0.00 0.00 0.00 94 1016.1
20260904081248 72 330 0.0 0.0 0.00 0.00 0.00 94 1016.1
20260904080743 72 330 0.0 0.0 0.00 0.00 0.00 94 1016.1
20260904080239 72 330 0.0 0.0 0.00 0.00 0.00 93 1015.8
20260904075735 72 330 1.0 4.0 0.00 0.00 0.00 94 1015.8
20260904075230 72 330 0.0 0.0 0.00 0.00 0.00 94 1015.8
20260904074729 72 330 0.0 0.0 0.00 0.00 0.00 94 1015.8
20260904074224 72 330 0.0 0.0 0.00 0.00 0.00 94 1015.4
20260904073719 72 330 0.0 0.0 0.00 0.00 0.00 95 1015.4
20260904073210 71 330 0.0 0.0 0.00 0.00 0.00 95 1015.4
20260904072706 72 330 0.0 0.0 0.00 0.00 0.00 94 1015.4
20260904072206 72 330 0.0 0.0 0.00 0.00 0.00 94 1015.4
20260904071702 73 330 0.0 0.0 0.00 0.00 0.00 94 1015.4
20260904071156 72 330 0.0 0.0 0.00 0.00 0.00 94 1015.4
20260904070656 71 330 0.0 0.0 0.00 0.00 0.00 95 1015.4
20260904070155 71 330 0.0 0.0 0.00 0.00 0.00 95 1015.4
20260904065650 71 330 0.0 0.0 0.00 0.00 0.00 95 1015.4
20260904065148 72 330 0.0 0.0 0.00 0.00 0.00 95 1015.4
20260904064647 72 330 0.0 0.0 0.00 0.00 0.00 94 1015.4
20260904064143 72 330 0.0 0.0 0.00 0.00 0.00 94 1015.4
20260904063638 72 330 0.0 0.0 0.00 0.00 0.00 94 1015.4
20260904063134 72 330 0.0 0.0 0.00 0.00 0.00 94 1015.8
20260904062630 72 330 0.0 0.0 0.00 0.00 0.00 94 1015.8
20260904062126 72 330 0.0 0.0 0.00 0.00 0.00 94 1015.8
20260904061621 72 330 0.0 0.0 0.00 0.00 0.00 94 1016.1
20260904061117 73 330 0.0 0.0 0.00 0.00 0.00 94 1016.1
20260904060614 73 330 0.0 0.0 0.00 0.00 0.00 94 1016.1
20260904060109 72 330 0.0 0.0 0.00 0.00 0.00 95 1016.1
20260904055604 72 330 0.0 0.0 0.00 0.00 0.00 95 1016.1
20260904055059 72 330 0.0 0.0 0.00 0.00 0.00 94 1016.1
20260904054555 72 330 0.0 0.0 0.00 0.00 0.00 94 1016.5
20260904054051 73 330 0.0 0.0 0.00 0.00 0.00 93 1016.8
20260904053550 73 330 0.0 0.0 0.00 0.00 0.00 93 1016.8
20260904053046 73 330 0.0 0.0 0.00 0.00 0.00 92 1016.8
20260904052542 73 330 0.0 0.0 0.00 0.00 0.00 93 1016.8
20260904052038 73 330 0.0 0.0 0.00 0.00 0.00 93 1017.2
20260904051534 73 330 0.0 0.0 0.00 0.00 0.00 92 1017.2
20260904051033 73 330 0.0 0.0 0.00 0.00 0.00 92 1017.2
20260904050529 73 330 0.0 0.0 0.00 0.00 0.00 92 1017.2
20260904050025 74 330 0.0 0.0 0.00 0.00 0.00 90 1017.2
20260904045520 75 330 0.0 0.0 0.00 0.00 0.00 90 1017.2
20260904045015 75 330 0.0 0.0 0.00 0.00 0.00 90 1017.2
20260904044511 75 330 0.0 0.0 0.00 0.00 0.00 91 1017.5
20260904044007 75 330 0.0 0.0 0.00 0.00 0.00 90 1017.5
20260904043503 74 330 0.0 0.0 0.00 0.00 0.00 90 1017.5
20260904042958 74 330 0.0 0.0 0.00 0.00 0.00 90 1017.5
20260904042455 74 330 0.0 0.0 0.00 0.00 0.00 90 1017.5
20260904041949 74 330 0.0 0.0 0.00 0.00 0.00 90 1017.5
20260904041446 74 330 0.0 0.0 0.00 0.00 0.00 90 1017.5
20260904040942 75 330 0.0 0.0 0.00 0.00 0.00 89 1017.5
20260904040441 75 330 0.0 0.0 0.00 0.00 0.00 88 1017.5
20260904035937 75 330 0.0 0.0 0.00 0.00 0.00 89 1017.5
20260904035433 75 330 0.0 0.0 0.00 0.00 0.00 89 1017.5
20260904034932 75 330 0.0 0.0 0.00 0.00 0.00 89 1017.5
20260904034427 75 330 0.0 0.0 0.00 0.00 0.00 88 1017.5
20260904033923 75 330 0.0 0.0 0.00 0.00 0.00 88 1017.5
20260904033419 75 330 0.0 0.0 0.00 0.00 0.00 87 1017.5
20260904032915 75 330 0.0 0.0 0.00 0.00 0.00 88 1017.2
20260904032410 75 330 0.0 0.0 0.00 0.00 0.00 89 1017.2
20260904031904 75 330 0.0 0.0 0.00 0.00 0.00 89 1017.5
20260904031400 76 330 0.0 0.0 0.00 0.00 0.00 87 1017.2
20260904030856 75 330 0.0 0.0 0.00 0.00 0.00 88 1017.2
20260904030351 76 330 0.0 0.0 0.00 0.00 0.00 87 1017.2
20260904025846 76 330 0.0 0.0 0.00 0.00 0.00 85 1017.2
20260904025342 76 330 0.0 0.0 0.00 0.00 0.00 86 1017.2
20260904024842 76 330 0.0 0.0 0.00 0.00 0.00 87 1017.2
20260904024337 76 330 0.0 0.0 0.00 0.00 0.00 86 1017.2
20260904023834 77 330 0.0 0.0 0.00 0.00 0.00 85 1017.2
20260904023330 77 330 0.0 0.0 0.00 0.00 0.00 83 1017.5
20260904022828 78 330 0.0 0.0 0.00 0.00 0.00 83 1017.2
20260904022326 78 330 0.0 0.0 0.00 0.00 0.00 81 1017.2
20260904021822 78 330 0.0 0.0 0.00 0.00 0.00 82 1017.2
20260904021322 78 330 0.0 0.0 0.00 0.00 0.00 82 1017.2
20260904020817 77 330 0.0 2.0 0.00 0.00 0.00 83 1017.2
20260904020312 78 330 2.0 4.0 0.00 0.00 0.00 82 1017.2
20260904015810 78 330 1.0 4.0 0.00 0.00 0.00 82 1017.2
20260904015307 78 330 0.0 0.0 0.00 0.00 0.00 82 1017.2
20260904014805 79 330 0.0 0.0 0.00 0.00 0.00 80 1017.2
20260904014300 79 330 0.0 0.0 0.00 0.00 0.00 78 1017.2
20260904013756 79 330 0.0 0.0 0.00 0.00 0.00 78 1017.2
20260904013252 78 330 0.0 0.0 0.00 0.00 0.00 80 1017.2
20260904012748 78 330 0.0 0.0 0.00 0.00 0.00 82 1017.2
20260904012247 79 330 0.0 0.0 0.00 0.00 0.00 79 1017.2
20260904011746 79 330 0.0 1.0 0.00 0.00 0.00 78 1017.2
20260904011241 79 330 0.0 0.0 0.00 0.00 0.00 78 1016.8
20260904010736 79 330 1.0 4.0 0.00 0.00 0.00 79 1016.8
20260904010233 79 330 2.0 4.0 0.00 0.00 0.00 79 1016.8
20260904005728 80 330 1.0 4.0 0.00 0.00 0.00 78 1017.2
20260904005223 80 330 0.0 3.0 0.00 0.00 0.00 76 1017.2
20260904004718 80 330 0.0 3.0 0.00 0.00 0.00 76 1017.2
20260904004214 81 330 1.0 4.0 0.00 0.00 0.00 76 1017.2
20260904003708 81 330 0.0 0.0 0.00 0.00 0.00 75 1017.2
20260904003205 82 330 0.0 0.0 0.00 0.00 0.00 73 1016.8
20260904002700 83 330 0.0 0.0 0.00 0.00 0.00 70 1016.8
20260904002155 83 330 0.0 0.0 0.00 0.00 0.00 71 1016.8
20260904001645 82 330 0.0 0.0 0.00 0.00 0.00 73 1016.8
20260904001144 82 330 0.0 0.0 0.00 0.00 0.00 73 1016.5
20260904000639 84 330 0.0 0.0 0.00 0.00 0.00 66 1016.5
20260904000134 85 330 2.0 5.0 0.00 0.00 0.00 65 1016.5
20260903235634 85 338 4.0 6.0 0.00 0.00 0.00 64 1016.5
20260903235131 85 325 3.0 5.0 0.00 0.00 0.00 65 1016.1
20260903234624 85 316 5.0 6.0 0.00 0.00 0.00 66 1016.1
20260903234121 86 331 4.0 5.0 0.00 0.00 0.00 65 1015.8
20260903233617 87 331 2.0 4.0 0.00 0.00 0.00 62 1016.1
20260903233112 87 331 3.0 5.0 0.00 0.00 0.00 60 1015.8
20260903232606 88 324 3.0 5.0 0.00 0.00 0.00 58 1015.8
20260903232102 89 303 3.0 4.0 0.00 0.00 0.00 57 1015.8
20260903231551 90 302 2.0 4.0 0.00 0.00 0.00 55 1015.8
20260903231045 91 302 1.0 3.0 0.00 0.00 0.00 52 1015.8
20260903230542 93 255 0.0 0.0 0.00 0.00 0.00 51 1015.8
20260903230040 94 248 0.0 0.0 0.00 0.00 0.00 48 1015.4
20260903225538 94 248 0.0 0.0 0.00 0.00 0.00 45 1015.4
20260903225034 95 248 0.0 0.0 0.00 0.00 0.00 46 1015.4
20260903224530 95 248 0.0 0.0 0.00 0.00 0.00 44 1015.4
20260903224026 95 248 3.0 4.0 0.00 0.00 0.00 40 1015.0
20260903223525 95 236 3.0 4.0 0.00 0.00 0.00 40 1015.0
20260903223024 95 265 5.0 6.0 0.00 0.00 0.00 39 1015.0
20260903222520 95 251 5.0 5.0 0.00 0.00 0.00 39 1015.0
20260903222018 96 252 6.0 8.0 0.00 0.00 0.00 39 1015.0
20260903221514 96 256 8.0 10.0 0.00 0.00 0.00 39 1015.0
20260903221011 96 225 6.0 10.0 0.00 0.00 0.00 41 1015.0
20260903220510 96 243 5.0 7.0 0.00 0.00 0.00 42 1015.0
20260903220010 96 262 6.0 10.0 0.00 0.00 0.00 42 1015.0
20260903215505 96 244 5.0 6.0 0.00 0.00 0.00 45 1015.0
20260903215003 97 243 7.0 11.0 0.00 0.00 0.00 46 1015.4
20260903214459 97 270 4.0 5.0 0.00 0.00 0.00 46 1015.0
20260903213958 97 247 6.0 7.0 0.00 0.00 0.00 45 1015.4
20260903213454 97 169 2.0 4.0 0.00 0.00 0.00 45 1015.4
20260903212950 97 102 3.0 6.0 0.00 0.00 0.00 44 1015.4
20260903212445 98 128 0.0 1.0 0.00 0.00 0.00 44 1015.4
20260903211940 98 125 3.0 5.0 0.00 0.00 0.00 44 1015.4
20260903211435 98 125 3.0 4.0 0.00 0.00 0.00 44 1015.4
20260903210932 98 225 3.0 4.0 0.00 0.00 0.00 44 1015.8
20260903210431 97 132 0.0 3.0 0.00 0.00 0.00 44 1015.8
20260903205927 97 168 4.0 6.0 0.00 0.00 0.00 44 1015.4
20260903205426 97 127 7.0 9.0 0.00 0.00 0.00 44 1015.8
20260903204920 98 162 4.0 5.0 0.00 0.00 0.00 44 1015.8
20260903204417 98 125 4.0 6.0 0.00 0.00 0.00 43 1015.8
20260903203913 98 136 4.0 5.0 0.00 0.00 0.00 44 1015.8
20260903203408 98 121 5.0 6.0 0.00 0.00 0.00 44 1015.8
20260903202907 97 143 4.0 6.0 0.00 0.00 0.00 44 1015.8
20260903202404 98 149 6.0 8.0 0.00 0.00 0.00 44 1015.8
20260903201903 98 147 1.0 3.0 0.00 0.00 0.00 44 1015.8
20260903201359 98 107 3.0 7.0 0.00 0.00 0.00 45 1015.8
20260903200858 98 137 4.0 9.0 0.00 0.00 0.00 45 1015.8
20260903200353 97 132 5.0 7.0 0.00 0.00 0.00 45 1015.8
20260903195848 98 171 4.0 8.0 0.00 0.00 0.00 44 1015.8
20260903195344 98 180 2.0 4.0 0.00 0.00 0.00 46 1016.1
20260903194838 98 135 5.0 7.0 0.00 0.00 0.00 47 1015.8
20260903194334 97 198 0.0 1.0 0.00 0.00 0.00 48 1016.1
20260903193829 97 156 3.0 5.0 0.00 0.00 0.00 48 1016.1
20260903193326 97 187 6.0 8.0 0.00 0.00 0.00 47 1016.1
20260903192821 98 84 2.0 5.0 0.00 0.00 0.00 47 1016.5
20260903192316 97 131 4.0 7.0 0.00 0.00 0.00 48 1016.5
20260903191813 97 112 5.0 8.0 0.00 0.00 0.00 48 1016.5
20260903191308 97 165 3.0 5.0 0.00 0.00 0.00 48 1016.8
20260903190807 98 155 4.0 5.0 0.00 0.00 0.00 48 1016.8
20260903190302 97 89 6.0 9.0 0.00 0.00 0.00 48 1016.8
20260903185757 96 151 3.0 5.0 0.00 0.00 0.00 48 1016.8
20260903185256 98 63 2.0 4.0 0.00 0.00 0.00 44 1016.8
20260903184753 98 190 4.0 7.0 0.00 0.00 0.00 46 1016.8
20260903184249 98 182 1.0 4.0 0.00 0.00 0.00 46 1016.8
20260903183744 100 182 3.0 7.0 0.00 0.00 0.00 44 1016.8
20260903183238 99 98 2.0 4.0 0.00 0.00 0.00 43 1016.8
20260903182737 99 123 5.0 7.0 0.00 0.00 0.00 43 1016.8
20260903182232 99 101 5.0 7.0 0.00 0.00 0.00 44 1016.8
20260903181731 98 138 5.0 7.0 0.00 0.00 0.00 46 1016.8
20260903181226 97 150 4.0 7.0 0.00 0.00 0.00 47 1017.2
20260903180722 97 104 6.0 10.0 0.00 0.00 0.00 48 1017.2
20260903180221 97 97 6.0 11.0 0.00 0.00 0.00 48 1017.2
20260903175721 96 121 3.0 5.0 0.00 0.00 0.00 49 1017.5
20260903175215 96 137 7.0 12.0 0.00 0.00 0.00 48 1017.5
20260903174714 98 129 7.0 8.0 0.00 0.00 0.00 46 1017.5
20260903174209 97 125 3.0 5.0 0.00 0.00 0.00 47 1017.5
20260903173709 95 110 2.0 4.0 0.00 0.00 0.00 48 1017.8
20260903173206 95 128 2.0 4.0 0.00 0.00 0.00 49 1017.8
20260903172700 96 105 3.0 4.0 0.00 0.00 0.00 47 1017.5
20260903172155 98 113 8.0 10.0 0.00 0.00 0.00 46 1017.2
20260903171650 98 129 2.0 5.0 0.00 0.00 0.00 46 1017.2
20260903171147 98 142 2.0 5.0 0.00 0.00 0.00 46 1017.2
20260903170645 98 148 4.0 7.0 0.00 0.00 0.00 47 1017.5
20260903170141 96 115 5.0 7.0 0.00 0.00 0.00 48 1017.5
20260903165638 97 164 5.0 10.0 0.00 0.00 0.00 48 1017.2
20260903165133 97 225 3.0 5.0 0.00 0.00 0.00 48 1017.2
20260903164627 99 71 2.0 5.0 0.00 0.00 0.00 46 1017.5
20260903164124 99 121 4.0 5.0 0.00 0.00 0.00 47 1017.5
20260903163619 98 213 1.0 3.0 0.00 0.00 0.00 48 1017.5
20260903163115 98 13 1.0 4.0 0.00 0.00 0.00 47 1017.5
20260903162611 97 169 2.0 3.0 0.00 0.00 0.00 49 1017.8
20260903162107 97 243 4.0 7.0 0.00 0.00 0.00 49 1017.8
20260903161602 97 176 3.0 7.0 0.00 0.00 0.00 49 1017.8
20260903161057 96 141 0.0 0.0 0.00 0.00 0.00 51 1017.8
20260903160556 96 176 4.0 7.0 0.00 0.00 0.00 50 1018.2
20260903160051 97 173 3.0 6.0 0.00 0.00 0.00 50 1018.2
20260903155550 96 118 0.0 0.0 0.00 0.00 0.00 51 1018.2
20260903155046 96 216 2.0 4.0 0.00 0.00 0.00 53 1018.2
20260903154542 97 131 6.0 7.0 0.00 0.00 0.00 50 1018.2
20260903154038 96 295 0.0 0.0 0.00 0.00 0.00 48 1018.2
20260903153533 96 237 0.0 0.0 0.00 0.00 0.00 51 1018.2
20260903153029 95 226 0.0 0.0 0.00 0.00 0.00 53 1018.2
20260903152525 94 144 1.0 2.0 0.00 0.00 0.00 54 1018.5